Location: Clairmont
(55.2667°N, 118.8000°W)
Time: 23:54:00
(UTC+00:00)

Envisat - Pass Details

Date: 03 November 2020
Orbit: 764 x 766 km, 98.1° (Epoch: 04 December)

Event Time Altitude Azimuth Distance (km) Brightness Sun altitude
Rises 14:16:29 0° 15° (NNE) 3,248 6.2 -7.3°
Reaches altitude 10° 14:18:48 10° 15° (NNE) 2,317 5.5 -7.0°
Maximum altitude 14:23:55 89° 286° (WNW) 774 3.1 -6.3°
Drops below altitude 10° 14:29:00 10° 198° (SSW) 2,299 5.5 -5.6°
Sets 14:31:18 0° 198° (SSW) 3,221 6.3 -5.3°
